SCP
0 0 0 0 0 0 0 0 0 0 0 0 0 0 1 1 1 1 1 1 1 2 2 1 1 1 1 1 1 1 1 1 1 1 1 1 1 1 2 2 2 2 1 1
0 0 0 0 0 0 0 0 0 0 0 0 0 0 1 1 1 1 1 1 1 2 1 1 1 1 1 1 1 1 1 1 1 1 1 1 1 1 1 2 2 2 1 1
0 0 0 0 0 0 0 0 0 0 0 0 0 0 1 1 1 1 1 1 1 1 1 1 1 1 1 1 1 1 1 1 1 1 1 1 1 1 1 1 2 2 1 1
0 0 0 0 0 0 0 0 0 0 0 0 0 0 1 1 1 1 1 1 1 1 1 2 2 2 2 2 1 1 1 1 1 1 1 1 1 1 1 2 2 2 2 1
0 0 0 0 0 0 0 0 0 0 0 0 0 0 0 1 1 1 1 2 2 1 1 2 2 2 2 2 2 2 2 1 1 1 1 1 1 1 2 3 4 3 2 1
0 0 0 0 0 0 0 0 0 0 0 0 0 0 0 1 1 1 2 2 2 1 1 2 2 2 3 3 2 2 2 2 2 1 1 2 2 3 4 6 5 3 2 2
0 0 0 0 0 0 0 0 0 0 0 0 0 0 0 1 1 1 2 2 2 2 2 2 2 3 4 4 3 3 3 3 2 2 2 3 3 4 5 7 7 4 3 2
0 0 0 0 0 0 0 0 0 0 0 0 0 0 0 1 1 1 1 1 1 1 2 2 2 4 5 5 5 4 4 4 3 3 3 4 4 5 5 7 7 5 4 3
0 1 1 0 0 0 0 0 0 0 0 0 0 0 0 1 1 1 1 1 1 1 1 2 2 4 5 5 5 5 5 4 4 4 4 4 4 4 4 5 5 5 4 4
0 1 1 1 1 0 0 0 0 0 0 0 0 0 0 1 1 2 2 1 1 1 1 1 2 4 4 4 4 5 5 5 5 5 5 5 4 3 3 3 3 4 4 4
0 1 1 1 1 0 0 0 0 0 0 0 0 0 0 1 2 2 2 1 1 1 1 1 2 4 4 4 4 4 5 5 6 6 5 5 4 3 2 3 3 3 4 4
0 1 1 1 1 0 0 0 0 0 0 0 0 0 1 1 2 2 2 1 1 1 1 1 2 3 4 4 4 4 5 5 5 5 5 5 4 3 3 4 4 4 4 4
0 1 1 1 1 1 0 0 0 0 0 0 0 0 1 1 2 2 2 2 2 1 1 2 3 4 5 5 4 5 5 5 4 5 5 5 4 4 4 5 5 4 4 4
0 1 1 1 1 1 1 0 0 0 0 0 0 0 1 1 2 2 2 2 2 1 2 2 3 4 5 5 5 5 5 4 4 5 6 5 5 4 5 6 5 5 4 5
0 0 1 1 1 1 1 0 0 0 0 0 1 1 1 2 2 2 2 2 1 1 2 3 4 5 5 5 4 4 5 5 5 6 7 7 6 5 6 6 5 5 4 5
0 0 0 1 0 0 0 0 0 0 1 1 1 1 1 2 2 3 3 2 1 2 2 3 4 4 5 4 4 4 5 5 6 8 9 8 7 7 7 7 6 5 4 4
0 0 0 0 0 0 0 0 0 1 1 1 2 2 2 2 2 3 3 2 2 2 3 3 4 4 5 4 4 4 5 6 8 9 9 7 7 8 9 8 7 6 5 5
0 0 0 0 0 0 0 0 0 1 1 1 1 1 1 2 2 3 3 3 3 3 4 4 4 5 5 5 5 5 5 6 8 8 7 6 7 8 9 10 10 9 7 6
1 1 0 0 0 0 0 0 0 0 1 1 1 1 2 2 2 3 4 4 4 4 4 5 5 6 7 6 6 6 5 6 7 6 6 6 7 8 8 10 11 11 9 8
1 1 1 0 0 0 1 1 1 1 1 1 2 2 2 2 2 3 4 4 4 4 4 5 6 7 8 7 7 6 6 6 7 7 6 7 8 8 8 9 11 11 10 10
1 1 1 0 0 1 1 1 1 1 2 2 2 2 2 3 3 3 3 3 3 3 4 5 6 7 8 8 8 7 6 6 7 8 8 9 9 9 8 9 10 12 11 11
1 1 1 1 1 1 2 2 2 3 3 3 3 3 3 3 4 4 3 3 3 3 4 5 6 7 8 8 8 7 7 6 7 9 12 13 12 10 8 8 9 11 11 10
2 2 2 2 2 2 3 3 3 3 4 4 3 3 4 5 5 4 3 3 3 4 5 6 6 7 7 8 7 7 7 7 7 10 15 15 13 10 8 8 8 8 8 7
2 3 3 4 3 3 2 3 3 3 3 3 3 3 4 5 5 4 3 3 3 4 5 6 6 7 7 7 7 7 7 7 7 10 13 13 11 9 7 6 6 6 6 6
3 3 4 4 4 3 3 2 2 2 2 2 3 4 4 4 3 3 2 2 3 4 5 5 5 6 7 7 6 6 6 6 7 8 9 9 8 7 6 5 5 5 5 5
3 3 3 3 3 3 3 3 2 2 3 3 3 4 4 4 3 2 2 3 3 4 5 5 5 6 6 6 5 5 4 5 6 6 6 7 6 6 5 5 4 4 4 4
Wind_Speed
5 6 3 1 2 2 1 1 2 3 2 1 1 2 4 6 6 5 6 7 6 6 6 6 6 5 5 4 4 3 2 2 1 1 1 1 1 1 2 2 2 2 1 2
7 6 2 2 2 3 2 1 2 3 2 2 0 1 4 6 6 5 6 6 7 7 7 7 6 6 5 5 4 4 3 3 2 1 1 0 0 1 1 1 2 2 2 2
8 2 2 4 4 4 3 2 1 1 2 4 3 4 5 6 6 6 6 6 7 7 8 8 7 7 6 5 5 4 3 3 3 2 2 2 2 1 1 2 2 2 2 3
6 3 4 5 4 5 2 1 2 2 4 1 3 1 4 5 6 7 7 8 8 8 8 8 8 7 7 6 6 4 4 4 3 3 2 2 1 1 1 1 2 2 2 2
5 5 6 5 3 4 1 1 3 4 4 3 3 4 5 5 4 6 7 8 8 8 8 8 8 8 7 7 6 5 5 4 4 3 3 3 2 1 1 1 2 2 2 2
4 4 4 3 2 3 4 5 5 6 6 3 1 4 2 3 2 3 5 6 7 8 8 8 8 8 7 7 6 6 6 5 5 4 4 4 3 3 2 2 2 2 2 2
7 7 5 4 5 6 7 7 5 5 4 0 2 3 3 3 1 1 3 5 7 7 8 8 8 8 8 7 7 6 6 5 5 5 5 5 4 4 4 3 2 2 2 2
9 9 7 5 6 5 6 8 5 4 3 1 3 1 4 4 2 1 2 4 6 6 7 7 8 8 8 7 7 6 6 5 5 6 5 5 5 4 3 3 2 2 2 1
6 6 6 3 3 6 6 6 6 7 6 5 1 2 4 3 2 2 3 4 6 6 7 8 8 8 8 7 7 7 6 5 5 5 5 5 4 3 2 3 3 2 1 2
4 5 6 5 6 2 5 4 5 7 5 6 4 3 1 2 2 2 3 3 4 6 6 7 7 8 7 7 7 6 6 5 4 5 5 4 4 4 3 3 2 2 2 2
6 7 7 7 7 5 5 6 5 6 7 7 4 2 5 3 2 1 2 2 3 4 5 6 6 7 7 7 7 7 6 5 5 4 4 4 4 4 4 3 3 3 2 2
4 7 6 6 3 3 6 6 7 7 6 6 7 2 6 3 2 2 2 2 2 2 3 5 6 6 7 7 6 7 6 6 5 5 5 4 4 4 4 4 3 3 3 3
3 6 7 8 9 8 6 6 8 9 7 7 8 2 6 2 3 3 3 2 2 2 2 4 5 5 5 6 6 6 6 6 5 5 5 4 4 4 4 3 3 3 3 3
5 7 8 8 3 5 7 7 8 9 8 8 8 3 2 1 2 3 3 2 1 2 2 3 4 4 5 5 5 5 5 5 5 5 5 5 4 4 4 4 4 3 3 3
5 7 7 6 4 5 7 8 8 10 10 9 7 5 1 0 1 1 2 2 1 1 1 2 3 3 4 5 5 5 5 5 5 5 5 5 5 4 4 4 4 3 3 3
3 5 7 8 7 7 8 9 9 10 10 10 8 5 1 1 1 1 2 2 1 0 1 2 3 3 4 5 5 5 6 6 5 5 5 5 4 4 4 4 4 4 3 3
5 6 8 9 7 9 12 9 10 9 8 8 8 3 1 1 1 1 2 2 2 2 2 2 2 3 4 4 5 5 6 6 6 6 5 5 5 5 4 4 4 4 4 4
6 6 6 7 8 14 2 1 5 6 5 5 4 2 2 3 2 0 1 2 3 3 3 2 2 2 3 4 5 5 6 7 7 6 6 6 6 5 5 4 4 4 4 4
7 7 7 8 11 10 5 4 5 7 5 3 3 2 2 3 3 2 2 3 4 4 3 3 2 2 2 3 4 5 6 6 7 7 7 7 6 6 6 5 4 4 4 4
6 8 8 9 11 10 4 3 3 7 7 0 2 2 2 3 5 1 3 3 4 4 3 3 2 1 1 2 3 4 5 6 6 6 7 7 7 6 6 5 5 4 4 4
9 9 11 11 11 6 1 1 4 8 1 2 1 2 3 3 5 3 2 3 3 3 3 2 2 1 1 2 3 4 4 5 5 5 6 7 7 7 6 5 5 4 4 4
8 8 10 10 11 6 2 3 4 2 4 2 2 2 3 3 3 2 2 3 3 3 3 2 1 1 1 2 3 4 4 3 4 5 6 6 7 6 6 5 5 5 5 6
6 4 4 4 2 3 2 1 2 3 3 3 4 3 3 4 3 3 3 3 3 3 3 3 2 2 1 2 3 3 3 3 4 5 6 6 6 6 6 6 6 6 6 6
4 3 5 5 3 2 2 2 3 4 5 5 4 4 4 4 4 4 3 3 3 3 3 3 3 2 2 2 3 3 2 3 4 5 6 6 6 6 6 6 6 6 6 6
3 4 6 6 4 4 3 4 5 4 5 6 5 4 5 4 4 5 4 4 3 3 3 3 2 3 3 2 2 2 2 2 4 4 5 6 6 6 5 6 5 6 5 4
5 7 8 6 4 5 4 4 6 6 6 6 6 6 5 5 5 5 5 4 4 4 4 4 3 3 3 2 2 2 2 2 3 3 4 4 4 4 5 5 5 3 5 4
Wind_Direction
204 233 242 304 307 331 315 10 62 65 100 234 166 142 148 159 179 177 174 171 172 167 157 161 166 165 161 161 166 171 183 159 167 162 183 155 137 137 127 121 115 137 136 125
211 219 246 280 245 245 240 249 101 116 128 257 220 181 161 166 181 184 182 181 179 175 169 169 176 176 176 173 177 178 188 184 186 157 158 123 52 119 110 103 119 135 137 142
228 188 180 227 227 241 240 293 1 79 177 202 236 179 166 172 183 187 194 192 187 186 182 179 182 184 183 183 186 189 188 186 188 176 172 154 157 171 137 146 134 135 146 159
228 184 206 227 233 259 251 342 255 217 237 160 269 296 137 169 185 195 200 201 195 188 188 185 184 187 188 188 186 187 186 188 183 185 194 196 174 154 120 147 121 135 143 160
198 192 208 225 232 266 324 170 237 250 263 260 215 284 112 153 197 202 204 203 199 191 188 188 188 187 190 188 185 180 182 187 185 189 185 204 208 196 179 150 137 165 152 168
202 187 226 237 198 210 169 192 207 229 244 251 359 286 84 116 237 216 194 195 197 193 188 187 186 184 188 187 186 182 180 186 187 192 196 203 202 206 208 191 170 187 165 161
195 188 183 203 193 180 219 239 232 221 223 173 101 271 49 59 35 255 193 183 185 187 188 186 186 184 187 188 187 186 184 188 188 192 199 202 204 203 203 214 189 203 182 164
202 189 182 199 231 224 233 261 278 291 297 159 168 274 71 60 54 139 167 165 170 178 181 185 185 185 187 187 186 187 186 192 192 193 193 199 202 210 201 195 212 201 214 164
216 190 158 182 231 252 229 247 285 276 272 275 209 137 132 97 82 104 120 146 164 169 176 180 181 184 185 185 182 184 184 190 194 194 189 192 198 211 200 183 198 202 197 178
239 207 174 171 194 204 280 263 250 261 267 265 230 211 91 83 86 103 106 128 155 165 173 175 177 182 183 183 179 183 185 190 194 194 198 189 188 194 190 194 187 183 184 190
245 225 187 194 216 210 198 215 244 260 274 280 275 96 66 67 72 93 110 118 143 166 170 169 171 179 181 181 179 181 183 188 191 195 195 196 187 186 185 185 182 176 179 182
239 247 220 202 182 263 240 237 232 246 250 264 282 98 88 75 86 81 84 102 116 134 154 161 164 172 179 181 182 182 184 190 191 187 186 189 183 184 185 179 171 171 174 180
218 240 218 200 192 194 222 234 246 256 253 252 262 151 111 110 80 66 55 72 104 119 134 153 158 167 176 182 183 184 185 187 186 179 179 176 179 179 183 175 169 167 169 176
245 243 249 253 245 199 214 226 240 248 248 251 257 269 144 141 78 56 46 56 105 126 135 146 155 163 171 177 180 185 188 185 182 179 177 172 178 184 183 174 169 170 176 179
244 238 244 255 260 241 240 238 237 247 261 268 268 261 249 173 61 42 32 43 63 118 161 167 168 162 171 177 182 185 184 181 177 176 178 176 178 178 178 174 174 173 183 190
247 245 238 236 234 237 244 242 241 245 253 257 260 262 352 140 127 27 359 5 4 341 228 207 187 178 181 189 190 184 184 179 177 182 180 173 174 176 177 175 172 178 191 203
213 228 239 236 225 235 236 232 234 238 243 255 259 282 12 252 297 330 337 349 349 337 307 244 216 202 194 196 195 189 186 182 179 183 182 178 181 183 185 183 177 186 197 204
219 232 240 238 223 236 210 130 235 239 248 270 287 314 275 279 278 332 14 353 346 337 329 312 257 231 202 193 194 194 188 184 183 183 183 184 186 188 190 190 193 195 200 208
221 224 240 238 234 234 206 203 237 235 236 274 278 289 299 307 253 192 38 5 345 333 326 319 282 262 209 193 190 189 189 189 189 189 188 189 192 195 197 196 200 208 209 214
200 224 238 238 246 242 198 160 234 249 230 193 274 278 293 288 264 336 17 348 346 345 340 326 300 261 212 198 188 195 193 196 199 197 194 191 195 199 204 201 202 208 214 221
194 209 229 237 244 239 111 166 209 233 253 34 277 270 265 266 312 345 336 339 346 338 332 318 294 251 231 219 203 209 206 207 205 199 197 195 195 200 205 204 203 207 217 224
219 217 220 232 240 226 88 198 231 358 16 339 310 285 286 299 324 326 323 329 329 328 329 318 293 275 250 227 219 219 222 224 209 200 201 199 200 207 198 200 204 209 216 219
234 274 260 256 267 62 8 324 344 328 320 319 305 297 292 289 294 295 299 308 313 323 323 314 299 282 261 237 236 238 235 226 213 202 205 204 202 207 207 205 205 211 215 227
200 245 248 245 220 250 274 303 307 308 305 302 298 294 286 285 286 287 286 293 301 312 311 311 300 287 286 273 264 259 247 233 215 211 212 211 207 205 202 214 217 220 222 226
249 234 235 238 238 249 253 302 308 304 298 294 293 291 287 286 279 282 278 278 290 300 307 300 295 287 286 292 294 280 254 236 222 218 219 218 213 208 206 213 223 229 228 237
242 249 251 252 241 261 278 298 302 298 297 297 294 289 288 286 284 282 278 275 275 279 284 283 281 277 278 276 274 283 266 244 233 225 226 226 223 213 215 213 213 223 226 203